Weather observations for the past three days for
Marthas Vineyard Airport
| Date | Time (edt) | Wind (mph) | Vis. (mi.) | Weather | Sky Cond. | Temperature (ºF) | Relative Humidity | Wind Chill (°F) | Heat Index (°F) | Pressure | Precipitation (in) | ||||||
|---|---|---|---|---|---|---|---|---|---|---|---|---|---|---|---|---|---|
| Air | Dwpt | 6 hour | altimeter (in) | sea level (mb) | 1 hr | 3 hr | 6 hr | ||||||||||
| Max. | Min. | ||||||||||||||||
| 07 | 11:53 | W 6 | 10.00 | Mostly Cloudy | BKN021 | 57 | 46.9 | 69% | 29.77 | 1008.2 | |||||||
| 07 | 10:53 | W 8 | 10.00 | Overcast | OVC095 | 53.1 | 46 | 77% | 29.78 | 1008.4 | 0.01 | 0.01 | |||||
| 07 | 09:53 | NW 7 | 9.00 | Light Rain | BKN070 OVC090 | 48.9 | 44.1 | 83% | 46 | 29.78 | 1008.5 | ||||||
| 07 | 08:53 | N 10 G 21 | 10.00 | Light Rain | OVC055 | 48 | 44.1 | 86% | 44 | 29.76 | 1007.9 | ||||||
| 07 | 07:53 | NW 14 G 23 | 10.00 | Light Rain | FEW049 OVC060 | 48.9 | 45 | 52 | 48.9 | 86% | 44 | 29.77 | 1008.1 | 0.01 | 0.14 | ||
| 07 | 06:53 | NW 8 | 10.00 | Light Rain | SCT008 SCT017 OVC048 | 51.1 | 50 | 96% | 29.75 | 1007.3 | 0.01 | ||||||
| 07 | 05:53 | NW 12 | 10.00 | Light Rain | FEW004 BKN060 OVC095 | 52 | 51.1 | 97% | 29.72 | 1006.5 | 0.12 | ||||||
| 07 | 04:53 | NW 7 | 5.00 | Fog/Mist | OVC002 | 52 | 52 | 100% | 29.71 | 1006.2 | |||||||
| 07 | 03:53 | SW 8 | 0.75 | Fog/Mist | VV002 | 52 | 51.1 | 97% | 29.72 | 1006.3 | |||||||
| 07 | 02:53 | SW 6 | 1.00 | Fog/Mist | OVC002 | 52 | 52 | 100% | 29.73 | 1006.7 | |||||||
| 07 | 01:53 | SW 7 G 22 | 1.50 | Fog/Mist | OVC002 | 53.1 | 52 | 55.9 | 53.1 | 96% | 29.73 | 1006.7 | 0.1 | ||||
| 07 | 00:53 | SW 12 G 23 | 1.00 | Fog/Mist | OVC002 | 54 | 53.1 | 97% | 29.76 | 1007.7 | |||||||
| 06 | 23:53 | SW 10 G 24 | 1.25 | Fog/Mist | OVC002 | 54 | 53.1 | 97% | 29.77 | 1008.1 | |||||||
| 06 | 22:53 | SW 14 G 24 | 4.00 | Fog/Mist | OVC003 | 55 | 54 | 96% | 29.77 | 1007.9 | 0.1 | ||||||
| 06 | 21:53 | SW 16 G 25 | 6.00 | Fog/Mist | OVC005 | 55 | 53.1 | 93% | 29.79 | 1008.7 | |||||||
| 06 | 20:53 | SW 17 G 30 | 7.00 | Overcast | OVC004 | 55 | 54 | 96% | 29.79 | 1008.8 | 0.1 | ||||||
| 06 | 19:53 | S 20 G 32 | 4.00 | Light Rain Fog/Mist | BKN006 OVC009 | 55 | 54 | 61 | 55 | 96% | 29.79 | 1008.7 | 0.04 | 0.05 | |||
| 06 | 18:53 | SW 16 G 26 | 4.00 | Light Rain Fog/Mist | BKN013 OVC020 | 55 | 53.1 | 93% | 29.81 | 1009.4 | 0.01 | ||||||
| 06 | 17:53 | S 20 G 32 | 8.00 | Overcast | SCT032 BKN075 OVC090 | 55.9 | 52 | 87% | 29.81 | 1009.4 | |||||||
| 06 | 16:53 | S 22 G 32 | 9.00 | Overcast and Breezy | FEW034 SCT070 OVC100 | 57 | 52 | 83% | 29.82 | 1009.8 | |||||||
| 06 | 15:53 | S 21 G 29 | 9.00 | Partly Cloudy and Breezy | SCT037 SCT120 | 57 | 52 | 83% | 29.84 | 1010.4 | |||||||
| 06 | 14:53 | S 24 G 37 | 9.00 | Mostly Cloudy and Breezy | BKN031 | 57.9 | 51.1 | 78% | 29.85 | 1010.7 | |||||||
| 06 | 13:53 | S 26 G 38 | 10.00 | Fair and Windy | CLR | 61 | 52 | 63 | 55.9 | 72% | 29.88 | 1011.9 | |||||
| 06 | 12:53 | S 24 G 36 | 10.00 | Fair and Breezy | CLR | 61 | 53.1 | 75% | 29.9 | 1012.5 | |||||||
| 06 | 11:53 | S 29 G 46 | 10.00 | Fair and Windy | CLR | 63 | 53.1 | 70% | 29.92 | 1013.1 | |||||||
| 06 | 10:53 | S 24 G 36 | 10.00 | Fair and Breezy | CLR | 59 | 52 | 78% | 29.92 | 1013.1 | |||||||
| 06 | 09:53 | S 23 G 36 | 10.00 | Fair and Breezy | CLR | 60.1 | 52 | 75% | 29.93 | 1013.5 | |||||||
| 06 | 08:53 | S 18 G 29 | 9.00 | Fair | CLR | 59 | 52 | 78% | 29.93 | 1013.5 | |||||||
| 06 | 07:53 | S 18 G 26 | 8.00 | Fair | CLR | 55.9 | 52 | 57 | 53.1 | 87% | 29.94 | 1013.9 | |||||
| 06 | 06:53 | S 15 | 7.00 | Fair | CLR | 55 | 52 | 90% | 29.94 | 1013.8 | |||||||
| 06 | 05:53 | S 18 | 6.00 | Fog/Mist | CLR | 53.1 | 51.1 | 93% | 29.94 | 1013.7 | |||||||
| 06 | 04:53 | S 17 | 8.00 | Fair | CLR | 53.1 | 51.1 | 93% | 29.94 | 1013.8 | |||||||
| 06 | 03:53 | S 21 G 29 | 8.00 | Fair and Breezy | CLR | 54 | 52 | 93% | 29.94 | 1013.7 | |||||||
| 06 | 02:53 | SW 15 G 25 | 8.00 | Overcast | SCT006 OVC011 | 55 | 53.1 | 93% | 29.94 | 1013.7 | |||||||
| 06 | 01:53 | S 18 G 29 | 7.00 | Partly Cloudy | SCT019 | 54 | 52 | 55.9 | 54 | 93% | 29.94 | 1013.9 | |||||
| 06 | 00:53 | S 17 G 28 | 7.00 | Mostly Cloudy | FEW006 BKN012 | 54 | 52 | 93% | 29.95 | 1014.2 | |||||||
| 05 | 23:53 | S 20 G 28 | 9.00 | Fair | CLR | 54 | 52 | 93% | 29.95 | 1014.2 | |||||||
| 05 | 22:53 | S 21 G 31 | 9.00 | Fair and Breezy | CLR | 55 | 51.1 | 87% | 29.94 | 1013.8 | |||||||
| 05 | 21:53 | SW 17 G 25 | 9.00 | Fair | CLR | 55 | 51.1 | 87% | 29.96 | 1014.4 | |||||||
| 05 | 20:53 | SW 17 G 32 | 9.00 | Fair | CLR | 55 | 48.9 | 80% | 29.92 | 1013.2 | |||||||
| 05 | 19:53 | SW 16 G 31 | 9.00 | Fair | CLR | 55 | 46.9 | 60.1 | 55 | 74% | 29.9 | 1012.6 | |||||
| 05 | 18:53 | SW 18 G 31 | 9.00 | Fair | CLR | 55.9 | 48 | 75% | 29.88 | 1011.9 | |||||||
| 05 | 17:53 | SW 18 G 30 | 9.00 | Fair | CLR | 57 | 50 | 78% | 29.88 | 1011.9 | |||||||
| 05 | 16:53 | SW 21 G 32 | 9.00 | Fair and Breezy | CLR | 57.9 | 50 | 75% | 29.88 | 1011.8 | |||||||
| 05 | 15:53 | SW 25 G 36 | 9.00 | Fair and Breezy | CLR | 57.9 | 50 | 75% | 29.88 | 1012.0 | |||||||
| 05 | 14:53 | S 23 G 36 | 10.00 | Fair and Breezy | CLR | 60.1 | 48.9 | 67% | 29.89 | 1012.2 | |||||||
| 05 | 13:53 | S 25 G 36 | 9.00 | Fair and Breezy | CLR | 59 | 48.9 | 61 | 55 | 69% | 29.91 | 1012.7 | |||||
| 05 | 12:53 | SW 24 G 38 | 9.00 | Fair and Breezy | CLR | 59 | 48.9 | 69% | 29.92 | 1013.0 | |||||||
| 05 | 11:53 | SW 21 G 33 | 10.00 | Fair and Breezy | CLR | 59 | 48.9 | 69% | 29.92 | 1013.3 | |||||||
| 05 | 10:53 | SW 18 G 30 | 9.00 | Fair | CLR | 57.9 | 48.9 | 72% | 29.93 | 1013.5 | |||||||
| 05 | 09:53 | S 23 | 10.00 | Fair and Breezy | CLR | 57.9 | 48.9 | 72% | 29.92 | 1013.2 | |||||||
| 05 | 08:53 | SW 16 G 31 | 10.00 | Fair | CLR | 57 | 48.9 | 74% | 29.92 | 1013.2 | |||||||
| 05 | 07:53 | SW 18 G 30 | 10.00 | Fair | CLR | 55 | 48.9 | 55 | 48 | 80% | 29.92 | 1013.2 | |||||
| 05 | 06:53 | S 12 | 9.00 | Partly Cloudy | SCT095 | 52 | 48.9 | 89% | 29.91 | 1012.9 | |||||||
| 05 | 05:53 | SW 8 | 8.00 | Fair | CLR | 48.9 | 46 | 90% | 46 | 29.9 | 1012.6 | ||||||
| 05 | 04:53 | S 8 | 10.00 | Fair | CLR | 48 | 46 | 93% | 45 | 29.9 | 1012.6 | ||||||
| 05 | 03:53 | S 7 | 10.00 | Fair | CLR | 48.9 | 46 | 90% | 46 | 29.91 | 1012.8 | ||||||
| 05 | 02:53 | SW 8 G 18 | 10.00 | Fair | CLR | 51.1 | 46.9 | 86% | 29.91 | 1012.7 | |||||||
| 05 | 01:53 | SW 9 | 10.00 | Fair | CLR | 51.1 | 46.9 | 52 | 50 | 86% | 29.91 | 1012.8 | |||||
| 05 | 00:53 | SW 9 | 10.00 | Fair | CLR | 51.1 | 48 | 89% | 29.91 | 1012.9 | |||||||
| 04 | 23:53 | SW 13 G 21 | 10.00 | Fair | CLR | 51.1 | 46.9 | 86% | 29.92 | 1013.3 | |||||||
| 04 | 22:53 | SW 13 G 22 | 10.00 | Fair | CLR | 51.1 | 46 | 83% | 29.92 | 1013.3 | |||||||
| 04 | 21:53 | SW 17 G 28 | 10.00 | Fair | CLR | 52 | 45 | 77% | 29.92 | 1013.2 | |||||||
| 04 | 20:53 | SW 17 G 29 | 10.00 | Fair | CLR | 52 | 45 | 77% | 29.9 | 1012.5 | |||||||
| 04 | 19:53 | SW 14 G 28 | 10.00 | Fair | CLR | 52 | 44.1 | 59 | 51.1 | 75% | 29.87 | 1011.6 | |||||
| 04 | 18:53 | SW 17 G 28 | 10.00 | Fair | CLR | 53.1 | 43 | 69% | 29.87 | 1011.4 | |||||||
| 04 | 17:53 | SW 16 G 30 | 10.00 | Fair | CLR | 55 | 43 | 64% | 29.87 | 1011.4 | |||||||
| 04 | 16:53 | S 23 G 29 | 10.00 | Fair and Breezy | CLR | 55.9 | 43 | 62% | 29.87 | 1011.4 | |||||||
| 04 | 15:53 | SW 20 G 33 | 10.00 | Fair | CLR | 57 | 43 | 60% | 29.87 | 1011.4 | |||||||
| 04 | 14:53 | SW 22 G 39 | 10.00 | Fair and Breezy | CLR | 59 | 41 | 51% | 29.87 | 1011.6 | |||||||
| 04 | 13:53 | SW 23 G 40 | 10.00 | Fair and Breezy | CLR | 57.9 | 43 | 64 | 55 | 58% | 29.87 | 1011.5 | |||||
| Date | Time (edt) | Wind (mph) | Vis. (mi.) | Weather | Sky Cond. | Air | Dwpt | Max. | Min. | Relative Humidity | Wind Chill (°F) | Heat Index (°F) | altimeter (in) | sea level (mb) | 1 hr | 3 hr | 6 hr |
| 6 hour | |||||||||||||||||
| Temperature (ºF) | Pressure | Precipitation (in) | |||||||||||||||